sat.trackr.live / text

‹ back to catalog

EDRS-C

NORAD 44475 · 2019-049A

PAYLOAD ACTIVE UNKNOWN

§ Identity

Operator
Country
ESA
Launch date
2019-08-06
Launch site
FRGUI
Launch vehicle
Mass (kg)
RCS (m²)

Purposes: comms

External: N2YO · Heavens-Above · Gunter

§ Orbital elements

Epoch: 2026-05-25T04:25:13.368864Z

Period
1,436.11 min
Inclination
0.0010°
Eccentricity
0.0000995
Mean motion
1.00270982 rev/d
Perigee alt
35,782.6 km
Apogee alt
35,791.0 km
Semi-major
42,165.0 km
B*
0.0000e+0
RAAN
306.2904°
Arg perigee
109.3514°
Mean anomaly
35.9309°
Rev number
2,498

§ Raw data

EDRS-C1 44475U 19049A   26145.18418251 -.00000264  00000+0  00000+0 0  99962 44475   0.0010 306.2904 0000995 109.3514  35.9309  1.00270982 24988

JSON: /api/v1/satellites/44475 · /tle

For live sub-satellite position, see the globe view (requires WebGL).

§ Visibility from observer

Set your observer location to see the next 7 days of passes ≥ 10°. The values pass through the URL so the page stays shareable.

No JS? Fill the form by hand. The geolocation button needs JavaScript.